Hourly Data Report for October 26, 2014

All times are specified in Local Standard Time (LST). Add 1 hour to adjust for Daylight Saving Time where and when it is observed.

HALL BEACH A
NUNAVUT

68°46'33.000" N
81°14'33.000" W
9.10 m
2402354
71293
YUX

Download Data

Hourly Data (October 2014)
Hourly Data Report for October 26, 2014
Temp Definition
°C
Dew Point Temp Definition
°C
Rel Hum Definition
%
Wind Dir Definition
10's deg

Wind Spd Definition
km/h
Visibility Definition
km
Stn Press Definition
kPa
Hmdx Definition


Wind Chill Definition


Weather Definition


TIME
00:00 Legend Double Dagger -14.8 -16.0 91 34 15 16.1 101.99   -23 Snow
01:00 Legend Double Dagger -11.6 -12.4 94 7 17 16.1 101.94   -19 Snow
02:00 Legend Double Dagger -12.2 -13.3 92 10 9 16.1 101.94   -17 LegendNANA
03:00 Legend Double Dagger -11.6 -12.5 93 12 11 16.1 101.94   -18 LegendNANA
04:00 Legend Double Dagger -11.5 -12.4 93 11 9 16.1 101.91   -17 LegendNANA
05:00 Legend Double Dagger -11.8 -12.9 92 11 9 16.1 101.89   -17 LegendNANA
06:00 Legend Double Dagger -11.3 -12.4 92 10 5 16.1 101.89   -14 LegendNANA
07:00 Legend Double Dagger -10.8 -11.7 93 5 8 16.1 101.87   -15 Snow
08:00 Legend Double Dagger -10.1 -10.9 94 6 9 16.1 101.87   -15 Snow
09:00 Legend Double Dagger -9.3 -10.1 94 8 13 16.1 101.83   -15 Snow
10:00 Legend Double Dagger -9.2 -10.3 92 10 11 16.1 101.81   -15 LegendNANA
11:00 Legend Double Dagger -9.0 -10.5 89 11 15 16.1 101.81   -16 LegendNANA
12:00 Legend Double Dagger -9.1 -10.7 88 11 18 16.1 101.78   -16 LegendNANA
13:00 Legend Double Dagger -9.0 -10.8 87 11 18 16.1 101.80   -16 LegendNANA
14:00 Legend Double Dagger -8.9 -10.4 89 11 17 16.1 101.78   -16 LegendNANA
15:00 Legend Double Dagger -9.3 -10.8 89 10 17 16.1 101.77   -16 LegendNANA
16:00 Legend Double Dagger -9.5 -11.1 88 10 13 16.1 101.76   -16 LegendNANA
17:00 Legend Double Dagger -8.7 -10.3 88 11 15 16.1 101.75   -15 LegendNANA
18:00 Legend Double Dagger -8.2 -9.7 89 11 17 16.1 101.73   -15 LegendNANA
19:00 Legend Double Dagger -8.1 -9.6 89 13 18 16.1 101.73   -15 LegendNANA
20:00 Legend Double Dagger -8.5 -10.3 87 12 21 16.1 101.71   -16 LegendNANA
21:00 Legend Double Dagger -8.4 -10.1 88 12 15 16.1 101.72   -15 LegendNANA
22:00 Legend Double Dagger -8.0 -9.7 88 11 17 16.1 101.68   -15 LegendNANA
23:00 Legend Double Dagger -8.2 -9.6 90 11 21 16.1 101.66   -16 LegendNANA

Notes on Data Quality.

Legend

  • E = Estimated
  • M = Missing
  • NA = Not Available
  • ‡ = Partner data that is not subject to review by the National Climate Archives
Date modified: